Regional Weather Roundup
Issued by NWS

Home | Current Version | Previous Version | Text Only | Print | Product List | Glossary Off
Versions: 1 2 3 4 5 6 7 8 9 10 11 12 13 14 15 16 17 18 19 20 21 22 23 24 25 26 27 28 29 30 31 32 33 34 35 36 37 38 39 40 41 42 43 44 45 46 47 48 49 50

000
ASUS43 KLOT 301412
RWRIL

ILLINOIS REGIONAL WEATHER ROUNDUP
NATIONAL WEATHER SERVICE CHICAGO/ROMEOVILLE IL
900 AM CDT SUN AUG 30 2015

NOTE: "FAIR" INDICATES FEW OR NO CLOUDS BELOW 12,000 FEET WITH NO
SIGNIFICANT WEATHER AND/OR OBSTRUCTIONS TO VISIBILITY.

* THESE STATIONS ARE NOT UNDER NWS QUALITY CONTROL. THEY ALSO MAY NOT
  REPORT WEATHER SUCH AS PRECIPITATION OR FOG.

ILZ001-002-007-009-015-016-024-301500-
NORTHWEST ILLINOIS

CITY           SKY/WX    TMP DP  RH WIND       PRES   REMARKS
MOLINE         FOG       63  62  97 E5        30.08R VSB 1/4
STERLING*        N/A    N/A N/A N/A MISG        N/A
SAVANNA*       SUNNY     67  62  84 CALM      30.08S
$$

ILZ003-004-008-010-011-017-018-301500-
NORTH CENTRAL ILLINOIS

CITY           SKY/WX    TMP DP  RH WIND       PRES   REMARKS
ROCKFORD       CLOUDY    68  62  81 CALM      30.10R
FREEPORT*      CLOUDY    65  61  85 E3        30.11R
ROCHELLE*      CLOUDY    66  63  91 CALM      30.09S FOG
DE KALB*       CLOUDY    66  63  91 NE3       30.10R FOG
PERU*          FOG       65  64  98 NE7       30.09R VSB 1/2
$$

ILZ005-006-012>014-019>023-301500-
NORTHEAST ILLINOIS

CITY           SKY/WX    TMP DP  RH WIND       PRES   REMARKS
CHICAGO-OHARE  CLOUDY    67  63  87 CALM      30.07S FOG
CHICAGO-MIDWAY CLOUDY    69  63  81 NE3       30.08R FOG
AURORA         CLOUDY    67  64  90 CALM      30.09S FOG
LANSING*       CLOUDY    66  64  96 CALM      30.08S FOG
JOLIET*        CLOUDY    69  65  89 CALM      30.08S FOG
WAUKEGAN       FOG       64  64 100 VRB5      30.08R VSB 1/4
DUPAGE AIRPORT CLOUDY    68  63  84 NE5       30.08R
KANKAKEE*      CLOUDY    67  66  97 NE7       30.08S FOG
WHEELING       CLOUDY    67  63  87 N3        30.09R FOG
MORRIS*        CLOUDY    67  65  93 E3        30.07S FOG
ROMEOVILLE*    CLOUDY    67  64  90 E3        30.08S FOG
NORTHERLY ISL    N/A     65  63  93 MISG        N/A
$$

LMZ740>746-301500-
SOUTHERN LAKE MICHIGAN

STATION/POSITION SKY/WX   TEMP    WIND        PRES    VSBY  WAVE
                          AIR SEA DIR/SP/G                  HT/PER
                          (F)     (DEG/KT/KT) (MB)    (MI)  (FT/S)
SOUTHERN BUOY              67 68  350/  8/  8 1017.9R         1
WILMETTE HARBOR            61 58  130/  4/  6   N/A           1/ 3
HARRISON CRIB              63     330/  7/  8   N/A
BURNHAM HARBOR             65      10/  5/  6   N/A
BURNS HARBOR               67     290/  1/  5 1018.6R
MICHIGAN CITY              68     310/  5/  6   N/A
MICHIGAN CITY 6N           69 71  330/  4/  4   N/A           1/ 3
ST. JOSEPH                 69 70  320/  4/  4   N/A           1/ 3
$$

ILZ025>027-034>036-040-047-049-050-058-095>099-301500-
WEST-CENTRAL ILLINOIS

CITY           SKY/WX    TMP DP  RH WIND       PRES   REMARKS
QUINCY         CLOUDY    71  68  90 E8        30.07R FOG
GALESBURG*     CLOUDY    65  65  98 NE3       30.08S FOG
MACOMB*        FOG       68  68 100 NE3       30.09S VSB 3/4
JACKSONVILLE*  CLOUDY    74  70  88 CALM      30.06R
PITTSFIELD*    FOG       71  70  96 CALM      30.08R VSB 1/4
$$

ILZ028>032-037-038-041>044-048-051>054-059>061-301500-
CENTRAL ILLINOIS

CITY           SKY/WX    TMP DP  RH WIND       PRES   REMARKS
PONTIAC        FOG       69  69 100 NE6       30.08S VSB 3/4
BLOOMINGTON    FOG       69  69 100 NE7       30.09R VSB 1/8
DECATUR        CLOUDY    73  67  81 SW7       30.07R
PEORIA         CLOUDY    70  67  90 NE6       30.07R FOG
LACON*         CLOUDY    65  64  97 CALM      30.07R FOG
LINCOLN*       CLOUDY    73  67  82 CALM      30.06S
SPRINGFIELD    CLOUDY    74  69  85 S5        30.06R
TAYLORVILLE    CLOUDY    70  66  88 S5        30.07R
$$

ILZ033-039-045-046-055>057-062-063-301500-
EAST-CENTRAL ILLINOIS

CITY           SKY/WX    TMP DP  RH WIND       PRES   REMARKS
CHAMPAIGN      CLOUDY    72  67  84 S6        30.07S
RANTOUL*       PTSUNNY   71  69  95 S3        30.07S FOG
MATTOON        MOSUNNY   72  63  73 S8        30.08R
PARIS*         CLOUDY    72  66  82 S3        30.09R
$$

ILZ079-100>102-301500-
SOUTHWEST ILLINOIS

CITY           SKY/WX    TMP DP  RH WIND       PRES   REMARKS
ALTON          MOSUNNY   72  68  88 CALM      30.06S
BELLEVILLE     MOSUNNY   74  71  90 VRB2      30.05S
CAHOKIA*       PTSUNNY   73  67  81 S5        30.06R
SPARTA*        PTSUNNY   73  67  80 SW7       30.08R
$$

ILZ064>066-069>071-074>076-080>082-084>086-088>090-092>094-301500-
SOUTH-CENTRAL ILLINOIS

CITY           SKY/WX    TMP DP  RH WIND       PRES   REMARKS
CARBONDALE     CLOUDY    72  68  87 S3        30.07R
CAIRO*         DRIZZLE   72  72 100 SE8       30.07S
EFFINGHAM*     CLOUDY    72  64  75 S3        30.09S
MARION         CLOUDY    73  70  88 S6        30.08R
MT. VERNON     PTSUNNY   73  64  73 CALM      30.09R
SALEM*         MOSUNNY   73  67  80 CALM      30.08R
METROPOLIS*    CLOUDY    73  72  98 CALM      30.09S
$$

ILZ067-068-072-073-078-083-087-091-301500-
SOUTHEAST ILLINOIS

CITY           SKY/WX    TMP DP  RH WIND       PRES   REMARKS
LAWRENCEVILLE  PTSUNNY   76  70  82 S7        30.09R
FLORA*         MOSUNNY   72  66  80 CALM      30.08S
FAIRFIELD*     CLOUDY    72  68  87 CALM      30.07S
HARRISBURG*    RAIN      72  71  96 S6        30.08S
ROBINSON*      CLOUDY    76  70  80 SW3       30.09S
CARMI*         LGT RAIN  75  71  89 SW7       30.07S
$$

ABBREVIATIONS USED IN REMARKS
   TC - TEMPERATURE IN CELSIUS
  WCI - WIND CHILL INDEX
   HX - HEAT INDEX
  VSB - VISIBILITY
$$



USA.gov is the U.S. government's official web portal to all federal, state and local government web resources and services.